status,avgMeasuredTime,avgSpeed,extID,medianMeasuredTime,TIMESTAMP,vehicleCount,_id,REPORT_ID
OK,76,30,764,76,2014-08-01T07:55:00,0,20746488,203928
OK,61,37,764,61,2014-08-01T08:00:00,2,20746819,203928
OK,61,37,764,61,2014-08-01T08:05:00,2,20747268,203928
OK,46,50,764,46,2014-08-01T08:10:00,1,20747641,203928
OK,46,50,764,46,2014-08-01T08:15:00,1,20748090,203928
OK,46,50,764,46,2014-08-01T08:20:00,0,20748539,203928
OK,46,50,764,46,2014-08-01T08:25:00,0,20748988,203928
OK,46,50,764,46,2014-08-01T08:30:00,0,20749437,203928
OK,46,50,764,46,2014-08-01T08:35:00,0,20749886,203928
OK,46,50,764,46,2014-08-01T08:40:00,0,20750335,203928
OK,46,50,764,46,2014-08-01T08:45:00,0,20750784,203928
OK,46,50,764,46,2014-08-01T08:50:00,0,20751233,203928
OK,46,50,764,46,2014-08-01T08:55:00,0,20751682,203928
OK,46,50,764,46,2014-08-01T09:00:00,0,20752131,203928
OK,46,50,764,46,2014-08-01T09:05:00,0,20752580,203928
OK,46,50,764,46,2014-08-01T09:10:00,0,20753029,203928
OK,46,50,764,46,2014-08-01T09:15:00,0,20753478,203928
OK,46,50,764,46,2014-08-01T09:20:00,0,20753927,203928
OK,46,50,764,46,2014-08-01T09:25:00,0,20754376,203928
OK,46,50,764,46,2014-08-01T09:30:00,0,20754825,203928
OK,46,50,764,46,2014-08-01T09:35:00,0,20755274,203928
OK,46,50,764,46,2014-08-01T09:40:00,0,20755723,203928
OK,46,50,764,46,2014-08-01T09:45:00,0,20756172,203928
OK,46,50,764,46,2014-08-01T09:50:00,0,20756621,203928
OK,50,46,764,50,2014-08-01T09:55:00,1,20757070,203928
OK,50,46,764,50,2014-08-01T10:00:00,1,20757519,203928
OK,53,43,764,53,2014-08-01T10:05:00,1,20757968,203928
OK,53,43,764,53,2014-08-01T10:10:00,1,20758417,203928
OK,53,43,764,53,2014-08-01T10:15:00,0,20758866,203928
OK,53,43,764,53,2014-08-01T10:20:00,0,20759315,203928
OK,53,43,764,53,2014-08-01T10:25:00,0,20759764,203928
OK,53,43,764,53,2014-08-01T10:30:00,0,20760213,203928
OK,53,43,764,53,2014-08-01T10:35:00,0,20760662,203928
OK,53,43,764,53,2014-08-01T10:40:00,0,20761111,203928
OK,53,43,764,53,2014-08-01T10:45:00,0,20761560,203928
OK,53,43,764,53,2014-08-01T10:50:00,0,20762009,203928
OK,53,43,764,53,2014-08-01T10:55:00,0,20762458,203928
OK,53,43,764,53,2014-08-01T11:00:00,0,20762907,203928
OK,53,43,764,53,2014-08-01T11:05:00,0,20763356,203928
OK,53,43,764,53,2014-08-01T11:10:00,0,20763805,203928
OK,53,43,764,53,2014-08-01T11:15:00,0,20764254,203928
OK,53,43,764,53,2014-08-01T11:20:00,0,20764702,203928
OK,53,43,764,53,2014-08-01T11:25:00,0,20765151,203928
OK,53,43,764,53,2014-08-01T11:30:00,0,20765600,203928
OK,57,40,764,57,2014-08-01T11:35:00,1,20766049,203928
OK,57,40,764,57,2014-08-01T11:40:00,1,20766498,203928
OK,57,40,764,57,2014-08-01T11:45:00,0,20766947,203928
OK,57,40,764,57,2014-08-01T11:50:00,0,20767396,203928
OK,57,40,764,57,2014-08-01T11:55:00,0,20767845,203928
OK,57,40,764,57,2014-08-01T12:00:00,0,20768294,203928
OK,57,40,764,57,2014-08-01T12:05:00,0,20768743,203928
OK,63,36,764,63,2014-08-01T12:10:00,1,20769192,203928
OK,63,36,764,63,2014-08-01T12:15:00,1,20769641,203928
OK,63,36,764,63,2014-08-01T12:20:00,0,20770090,203928
OK,57,40,764,57,2014-08-01T12:25:00,1,20770539,203928
OK,57,40,764,57,2014-08-01T12:30:00,1,20770988,203928
OK,45,51,764,45,2014-08-01T12:35:00,2,20771437,203928
OK,45,51,764,45,2014-08-01T12:40:00,2,20771886,203928
OK,45,51,764,45,2014-08-01T12:45:00,0,20772335,203928
OK,45,51,764,45,2014-08-01T12:50:00,0,20772784,203928
OK,45,51,764,45,2014-08-01T12:55:00,0,20773233,203928
OK,45,51,764,45,2014-08-01T13:00:00,0,20773682,203928
OK,45,51,764,45,2014-08-01T13:05:00,0,20774131,203928
OK,45,51,764,45,2014-08-01T13:10:00,0,20774580,203928
OK,45,51,764,45,2014-08-01T13:15:00,0,20775029,203928
OK,45,51,764,45,2014-08-01T13:20:00,0,20775478,203928
OK,45,51,764,45,2014-08-01T13:25:00,0,20775927,203928
OK,87,26,764,87,2014-08-01T13:30:00,3,20776376,203928
OK,71,32,764,71,2014-08-01T13:35:00,4,20776825,203928
OK,47,49,764,47,2014-08-01T13:40:00,1,20777274,203928
OK,46,50,764,46,2014-08-01T13:45:00,0,20777723,203928
OK,46,50,764,46,2014-08-01T13:50:00,0,20778172,203928
OK,46,50,764,46,2014-08-01T13:55:00,0,20778621,203928
OK,46,50,764,46,2014-08-01T14:00:00,0,20779070,203928
OK,46,50,764,46,2014-08-01T14:05:00,0,20779519,203928
OK,46,50,764,46,2014-08-01T14:10:00,0,20779968,203928
OK,46,50,764,46,2014-08-01T14:15:00,0,20780417,203928
OK,46,50,764,46,2014-08-01T14:20:00,0,20780866,203928
OK,46,50,764,46,2014-08-01T14:25:00,0,20781315,203928
OK,46,50,764,46,2014-08-01T14:30:00,0,20781764,203928
OK,46,50,764,46,2014-08-01T14:35:00,0,20782213,203928
OK,57,40,764,57,2014-08-01T14:40:00,2,20782662,203928
OK,57,40,764,57,2014-08-01T14:45:00,2,20783111,203928
OK,59,39,764,59,2014-08-01T14:50:00,0,20783560,203928
OK,59,39,764,59,2014-08-01T14:55:00,0,20784009,203928
OK,59,39,764,59,2014-08-01T15:00:00,0,20784458,203928
OK,59,39,764,59,2014-08-01T15:05:00,0,20784907,203928
OK,59,39,764,59,2014-08-01T15:10:00,0,20785356,203928
OK,59,39,764,59,2014-08-01T15:15:00,0,20785805,203928
OK,59,39,764,59,2014-08-01T15:20:00,0,20786254,203928
OK,59,39,764,59,2014-08-01T15:25:00,0,20786703,203928
OK,59,39,764,59,2014-08-01T15:30:00,1,20787152,203928
OK,59,39,764,59,2014-08-01T15:35:00,1,20787601,203928
OK,53,43,764,53,2014-08-01T15:40:00,1,20788050,203928
OK,53,43,764,53,2014-08-01T15:45:00,1,20788499,203928
OK,53,43,764,53,2014-08-01T15:50:00,0,20788948,203928
OK,53,43,764,53,2014-08-01T15:55:00,0,20789397,203928
OK,53,43,764,53,2014-08-01T16:00:00,0,20789846,203928
OK,53,43,764,53,2014-08-01T16:05:00,0,20790295,203928
OK,53,43,764,53,2014-08-01T16:10:00,0,20790744,203928
OK,53,43,764,53,2014-08-01T16:15:00,0,20791193,203928
OK,53,43,764,53,2014-08-01T16:20:00,0,20791642,203928
OK,43,53,764,43,2014-08-01T16:25:00,1,20792091,203928
OK,43,53,764,43,2014-08-01T16:30:00,0,20792540,203928
OK,43,53,764,43,2014-08-01T16:35:00,0,20792989,203928
OK,43,53,764,43,2014-08-01T16:40:00,0,20793438,203928
OK,43,53,764,43,2014-08-01T16:45:00,0,20793887,203928
OK,43,53,764,43,2014-08-01T16:50:00,0,20794336,203928
OK,43,53,764,43,2014-08-01T16:55:00,0,20794785,203928
OK,43,53,764,43,2014-08-01T17:00:00,0,20795234,203928
OK,43,53,764,43,2014-08-01T17:05:00,0,20795683,203928
OK,43,53,764,43,2014-08-01T17:10:00,0,20796132,203928
OK,43,53,764,43,2014-08-01T17:15:00,0,20796581,203928
OK,43,53,764,43,2014-08-01T17:20:00,0,20797030,203928
OK,43,53,764,43,2014-08-01T17:25:00,0,20797479,203928
OK,43,53,764,43,2014-08-01T17:30:00,0,20797928,203928
OK,43,53,764,43,2014-08-01T17:35:00,0,20798377,203928
OK,43,53,764,43,2014-08-01T17:40:00,0,20798826,203928
OK,43,53,764,43,2014-08-01T17:45:00,0,20799275,203928
OK,43,53,764,43,2014-08-01T17:50:00,0,20799724,203928
OK,43,53,764,43,2014-08-01T17:55:00,0,20800173,203928
OK,43,53,764,43,2014-08-01T18:00:00,0,20800622,203928
OK,43,53,764,43,2014-08-01T18:05:00,0,20801071,203928
OK,43,53,764,43,2014-08-01T18:10:00,0,20801520,203928
OK,43,53,764,43,2014-08-01T18:15:00,0,20801969,203928
OK,43,53,764,43,2014-08-01T18:20:00,0,20802418,203928
OK,43,53,764,43,2014-08-01T18:25:00,0,20802867,203928
OK,43,53,764,43,2014-08-01T18:30:00,0,20803316,203928
OK,43,53,764,43,2014-08-01T18:35:00,0,20803765,203928
OK,43,53,764,43,2014-08-01T18:40:00,0,20804214,203928
OK,43,53,764,43,2014-08-01T18:45:00,0,20804663,203928
OK,43,53,764,43,2014-08-01T18:50:00,0,20805112,203928
OK,43,53,764,43,2014-08-01T18:55:00,0,20805561,203928
OK,43,53,764,43,2014-08-01T19:00:00,0,20806010,203928
OK,43,53,764,43,2014-08-01T19:05:00,0,20806459,203928
OK,43,53,764,43,2014-08-01T19:10:00,0,20806908,203928
OK,43,53,764,43,2014-08-01T19:15:00,0,20807357,203928
OK,43,53,764,43,2014-08-01T19:20:00,0,20807806,203928
OK,43,53,764,43,2014-08-01T19:25:00,0,20808255,203928
OK,43,53,764,43,2014-08-01T19:30:00,0,20808704,203928
OK,43,53,764,43,2014-08-01T19:35:00,0,20809153,203928
OK,43,53,764,43,2014-08-01T19:40:00,0,20809602,203928
OK,43,53,764,43,2014-08-01T19:45:00,0,20810051,203928
OK,43,53,764,43,2014-08-01T19:50:00,0,20810500,203928
OK,43,53,764,43,2014-08-01T19:55:00,0,20810949,203928
OK,43,53,764,43,2014-08-01T21:20:00,0,20814735,203928
OK,43,53,764,43,2014-08-01T22:00:00,0,20816678,203928
OK,43,53,764,43,2014-08-01T22:05:00,0,20817127,203928
OK,43,53,764,43,2014-08-01T22:10:00,0,20817449,203928
OK,43,53,764,43,2014-08-01T22:15:00,0,20817878,203928
OK,43,53,764,43,2014-08-01T22:20:00,0,20818168,203928
OK,43,53,764,43,2014-08-01T22:25:00,0,20818484,203928
OK,43,53,764,43,2014-08-01T22:30:00,0,20818818,203928
OK,43,53,764,43,2014-08-01T22:40:00,0,20819302,203928
OK,43,53,764,43,2014-08-01T23:45:00,0,20822226,203928
OK,43,53,764,43,2014-08-01T23:55:00,0,20822819,203928
OK,43,53,764,43,2014-08-02T00:00:00,0,20823117,203928
OK,43,53,764,43,2014-08-02T00:05:00,0,20823566,203928
OK,43,53,764,43,2014-08-02T00:10:00,0,20824015,203928
OK,43,53,764,43,2014-08-02T00:15:00,0,20824464,203928
OK,43,53,764,43,2014-08-02T00:20:00,0,20824913,203928
OK,43,53,764,43,2014-08-02T00:25:00,0,20825362,203928
OK,43,53,764,43,2014-08-02T00:30:00,0,20825811,203928
OK,43,53,764,43,2014-08-02T00:35:00,0,20826260,203928
OK,43,53,764,43,2014-08-02T00:40:00,0,20826709,203928
OK,43,53,764,43,2014-08-02T00:45:00,0,20827158,203928
OK,43,53,764,43,2014-08-02T00:50:00,0,20827607,203928
OK,43,53,764,43,2014-08-02T00:55:00,0,20828056,203928
OK,43,53,764,43,2014-08-02T01:00:00,0,20828505,203928
OK,43,53,764,43,2014-08-02T01:05:00,0,20828954,203928
OK,43,53,764,43,2014-08-02T01:10:00,0,20829403,203928
OK,43,53,764,43,2014-08-02T01:15:00,0,20829852,203928
OK,43,53,764,43,2014-08-02T01:20:00,0,20830301,203928
OK,43,53,764,43,2014-08-02T01:25:00,0,20830750,203928
OK,43,53,764,43,2014-08-02T01:30:00,0,20831199,203928
OK,43,53,764,43,2014-08-02T01:35:00,0,20831648,203928
OK,43,53,764,43,2014-08-02T01:40:00,0,20832097,203928
OK,43,53,764,43,2014-08-02T01:45:00,0,20832546,203928
OK,43,53,764,43,2014-08-02T01:50:00,0,20832995,203928
OK,43,53,764,43,2014-08-02T01:55:00,0,20833444,203928
OK,43,53,764,43,2014-08-02T02:00:00,0,20833893,203928
OK,43,53,764,43,2014-08-02T02:05:00,0,20834342,203928
OK,43,53,764,43,2014-08-02T02:10:00,0,20834791,203928
OK,43,53,764,43,2014-08-02T02:15:00,0,20835240,203928
OK,43,53,764,43,2014-08-02T02:20:00,0,20835689,203928
OK,43,53,764,43,2014-08-02T02:25:00,0,20836138,203928
OK,43,53,764,43,2014-08-02T02:30:00,0,20836587,203928
OK,43,53,764,43,2014-08-02T02:35:00,0,20837036,203928
OK,43,53,764,43,2014-08-02T02:40:00,0,20837485,203928
OK,43,53,764,43,2014-08-02T02:45:00,0,20837934,203928
OK,43,53,764,43,2014-08-02T02:50:00,0,20838383,203928
OK,43,53,764,43,2014-08-02T02:55:00,0,20838832,203928
OK,43,53,764,43,2014-08-02T03:00:00,0,20839281,203928
OK,43,53,764,43,2014-08-02T03:05:00,0,20839730,203928
OK,43,53,764,43,2014-08-02T03:10:00,0,20840179,203928
OK,43,53,764,43,2014-08-02T03:15:00,0,20840628,203928
OK,43,53,764,43,2014-08-02T03:20:00,0,20841077,203928
OK,43,53,764,43,2014-08-02T03:25:00,0,20841526,203928
OK,43,53,764,43,2014-08-02T03:30:00,0,20841975,203928
OK,43,53,764,43,2014-08-02T03:35:00,0,20842424,203928
OK,43,53,764,43,2014-08-02T03:40:00,0,20842873,203928
OK,43,53,764,43,2014-08-02T03:45:00,0,20843322,203928
OK,43,53,764,43,2014-08-02T03:50:00,0,20843771,203928
OK,43,53,764,43,2014-08-02T03:55:00,0,20844220,203928
OK,43,53,764,43,2014-08-02T04:05:00,0,20844800,203928
OK,43,53,764,43,2014-08-02T04:10:00,0,20845130,203928
OK,43,53,764,43,2014-08-02T04:15:00,0,20845310,203928
OK,43,53,764,43,2014-08-02T04:20:00,0,20845666,203928
OK,43,53,764,43,2014-08-02T04:30:00,0,20846222,203928
OK,43,53,764,43,2014-08-02T04:35:00,0,20846589,203928
OK,43,53,764,43,2014-08-02T04:40:00,0,20846972,203928
OK,43,53,764,43,2014-08-02T04:45:00,0,20847231,203928
OK,43,53,764,43,2014-08-02T04:50:00,0,20847597,203928
OK,43,53,764,43,2014-08-02T05:00:00,0,20848313,203928
OK,43,53,764,43,2014-08-02T05:10:00,0,20848831,203928
OK,43,53,764,43,2014-08-02T05:15:00,0,20849024,203928
OK,43,53,764,43,2014-08-02T05:20:00,0,20849368,203928
OK,43,53,764,43,2014-08-02T05:40:00,0,20850458,203928
OK,43,53,764,43,2014-08-02T05:45:00,0,20850759,203928
OK,43,53,764,43,2014-08-02T05:50:00,0,20851117,203928
OK,43,53,764,43,2014-08-02T05:55:00,0,20851371,203928
OK,43,53,764,43,2014-08-02T06:00:00,0,20851674,203928
OK,43,53,764,43,2014-08-02T06:05:00,0,20852123,203928
OK,43,53,764,43,2014-08-02T06:10:00,0,20852572,203928
OK,43,53,764,43,2014-08-02T06:15:00,0,20853021,203928
OK,43,53,764,43,2014-08-02T06:20:00,0,20853470,203928
OK,43,53,764,43,2014-08-02T06:25:00,0,20853919,203928
OK,43,53,764,43,2014-08-02T06:30:00,0,20854368,203928
OK,43,53,764,43,2014-08-02T06:35:00,0,20854817,203928
OK,43,53,764,43,2014-08-02T06:40:00,0,20855266,203928
OK,43,53,764,43,2014-08-02T06:45:00,0,20855715,203928
OK,43,53,764,43,2014-08-02T06:50:00,0,20856164,203928
OK,43,53,764,43,2014-08-02T06:55:00,0,20856613,203928
OK,43,53,764,43,2014-08-02T07:00:00,0,20857062,203928
OK,43,53,764,43,2014-08-02T07:05:00,0,20857511,203928
OK,48,48,764,48,2014-08-02T07:10:00,2,20857960,203928
OK,51,45,764,51,2014-08-02T07:15:00,2,20858409,203928
OK,53,43,764,53,2014-08-02T07:20:00,1,20858858,203928
OK,53,43,764,53,2014-08-02T07:25:00,0,20859307,203928
OK,53,43,764,53,2014-08-02T07:30:00,0,20859756,203928
OK,53,43,764,53,2014-08-02T07:35:00,0,20860205,203928
OK,55,41,764,55,2014-08-02T07:40:00,1,20860654,203928
OK,55,41,764,55,2014-08-02T07:45:00,0,20861103,203928
OK,55,41,764,55,2014-08-02T07:50:00,0,20861552,203928
OK,55,41,764,55,2014-08-02T07:55:00,0,20862001,203928
OK,55,41,764,55,2014-08-02T08:00:00,0,20862450,203928
OK,55,41,764,55,2014-08-02T08:05:00,0,20862899,203928
OK,49,47,764,49,2014-08-02T08:10:00,1,20863348,203928
OK,49,47,764,49,2014-08-02T08:15:00,1,20863797,203928
OK,64,36,764,64,2014-08-02T08:20:00,1,20864246,203928
OK,64,36,764,64,2014-08-02T08:25:00,1,20864695,203928
OK,64,36,764,64,2014-08-02T08:30:00,0,20865144,203928
OK,64,36,764,64,2014-08-02T08:35:00,0,20865593,203928
OK,64,36,764,64,2014-08-02T08:40:00,0,20866042,203928
OK,64,36,764,64,2014-08-02T08:45:00,0,20866491,203928
OK,43,53,764,43,2014-08-02T08:50:00,1,20866940,203928
OK,43,53,764,43,2014-08-02T08:55:00,1,20867389,203928
OK,51,45,764,51,2014-08-02T09:00:00,1,20867838,203928
OK,51,45,764,51,2014-08-02T09:05:00,1,20868287,203928
OK,49,47,764,49,2014-08-02T09:10:00,1,20868736,203928
OK,49,47,764,49,2014-08-02T09:15:00,0,20869185,203928
OK,49,47,764,49,2014-08-02T09:20:00,0,20869634,203928
OK,49,47,764,49,2014-08-02T09:25:00,0,20870083,203928
OK,49,47,764,49,2014-08-02T09:30:00,0,20870532,203928
OK,49,47,764,49,2014-08-02T09:35:00,0,20870981,203928
OK,49,47,764,49,2014-08-02T09:40:00,0,20871430,203928
OK,49,47,764,49,2014-08-02T09:45:00,0,20871879,203928
OK,49,47,764,49,2014-08-02T09:50:00,0,20872328,203928
OK,49,47,764,49,2014-08-02T09:55:00,0,20872777,203928
OK,49,47,764,49,2014-08-02T10:00:00,0,20873226,203928
OK,49,47,764,49,2014-08-02T10:05:00,0,20873675,203928
OK,49,47,764,49,2014-08-02T10:10:00,0,20874124,203928
OK,49,47,764,49,2014-08-02T10:15:00,0,20874573,203928
OK,50,46,764,50,2014-08-02T10:20:00,1,20875022,203928
OK,50,46,764,50,2014-08-02T10:25:00,0,20875471,203928
OK,50,46,764,50,2014-08-02T10:30:00,1,20875920,203928
OK,50,46,764,50,2014-08-02T10:35:00,1,20876369,203928
OK,50,46,764,50,2014-08-02T10:40:00,0,20876818,203928
OK,55,41,764,55,2014-08-02T10:45:00,1,20877267,203928
OK,55,41,764,55,2014-08-02T10:50:00,1,20877716,203928
OK,55,41,764,55,2014-08-02T10:55:00,0,20878165,203928
OK,55,41,764,55,2014-08-02T11:00:00,0,20878614,203928
OK,55,41,764,55,2014-08-02T11:05:00,0,20879063,203928
OK,55,41,764,55,2014-08-02T11:10:00,0,20879512,203928
OK,55,41,764,55,2014-08-02T11:15:00,0,20879961,203928
OK,55,41,764,55,2014-08-02T11:20:00,0,20880410,203928
OK,55,41,764,55,2014-08-02T11:25:00,0,20880859,203928
OK,55,41,764,55,2014-08-02T11:30:00,0,20881308,203928
OK,55,41,764,55,2014-08-02T11:35:00,0,20881757,203928
OK,55,41,764,55,2014-08-02T11:40:00,0,20882206,203928
OK,55,41,764,55,2014-08-02T11:45:00,0,20882655,203928
OK,55,41,764,55,2014-08-02T11:50:00,0,20883104,203928
OK,55,41,764,55,2014-08-02T11:55:00,0,20883553,203928
OK,55,41,764,55,2014-08-02T12:00:00,0,20884002,203928
OK,55,41,764,55,2014-08-02T12:05:00,0,20884451,203928
OK,55,41,764,55,2014-08-02T12:10:00,0,20884900,203928
OK,55,41,764,55,2014-08-02T12:15:00,0,20885349,203928
OK,55,41,764,55,2014-08-02T12:20:00,0,20885798,203928
OK,55,41,764,55,2014-08-02T12:25:00,0,20886247,203928
OK,55,41,764,55,2014-08-02T12:30:00,0,20886696,203928
OK,54,42,764,54,2014-08-02T12:35:00,1,20887145,203928
OK,54,42,764,54,2014-08-02T12:40:00,2,20887594,203928
OK,55,41,764,55,2014-08-02T12:45:00,0,20888043,203928
OK,55,41,764,55,2014-08-02T12:50:00,0,20888492,203928
OK,55,41,764,55,2014-08-02T12:55:00,0,20888941,203928
OK,55,41,764,55,2014-08-02T13:00:00,0,20889390,203928
OK,55,41,764,55,2014-08-02T13:05:00,0,20889839,203928
OK,55,41,764,55,2014-08-02T13:10:00,0,20890288,203928
OK,55,41,764,55,2014-08-02T13:15:00,0,20890737,203928
OK,55,41,764,55,2014-08-02T13:20:00,0,20891186,203928
OK,55,41,764,55,2014-08-02T13:25:00,0,20891635,203928
OK,55,41,764,55,2014-08-02T13:30:00,0,20892084,203928
OK,55,41,764,55,2014-08-02T13:35:00,0,20892533,203928
OK,62,37,764,62,2014-08-02T13:40:00,1,20892982,203928
OK,62,37,764,62,2014-08-02T13:45:00,0,20893431,203928
OK,62,37,764,62,2014-08-02T13:50:00,0,20893880,203928
OK,62,37,764,62,2014-08-02T13:55:00,0,20894329,203928
OK,62,37,764,62,2014-08-02T14:00:00,0,20894778,203928
OK,62,37,764,62,2014-08-02T14:05:00,0,20895227,203928
OK,62,37,764,62,2014-08-02T14:10:00,0,20895676,203928
OK,62,37,764,62,2014-08-02T14:15:00,0,20896125,203928
OK,62,37,764,62,2014-08-02T14:20:00,0,20896574,203928
OK,62,37,764,62,2014-08-02T14:25:00,0,20897023,203928
OK,62,37,764,62,2014-08-02T14:30:00,0,20897472,203928
OK,62,37,764,62,2014-08-02T14:35:00,0,20897921,203928
OK,62,37,764,62,2014-08-02T14:40:00,0,20898370,203928
OK,62,37,764,62,2014-08-02T14:45:00,0,20898819,203928
OK,62,37,764,62,2014-08-02T14:50:00,0,20899268,203928
OK,62,37,764,62,2014-08-02T14:55:00,0,20899717,203928
OK,62,37,764,62,2014-08-02T15:00:00,0,20900166,203928
OK,53,43,764,53,2014-08-02T15:05:00,1,20900615,203928
OK,53,43,764,53,2014-08-02T15:10:00,1,20901064,203928
OK,53,43,764,53,2014-08-02T15:15:00,0,20901513,203928
OK,53,43,764,53,2014-08-02T15:20:00,0,20901962,203928
OK,53,43,764,53,2014-08-02T15:25:00,0,20902411,203928
OK,53,43,764,53,2014-08-02T15:30:00,0,20902860,203928
OK,53,43,764,53,2014-08-02T15:35:00,0,20903309,203928
OK,53,43,764,53,2014-08-02T15:40:00,0,20903758,203928
OK,53,43,764,53,2014-08-02T15:45:00,0,20904207,203928
OK,53,43,764,53,2014-08-02T15:50:00,0,20904656,203928
OK,53,43,764,53,2014-08-02T15:55:00,0,20905105,203928
OK,53,43,764,53,2014-08-02T16:00:00,0,20905554,203928
OK,53,43,764,53,2014-08-02T16:05:00,0,20906003,203928
OK,53,43,764,53,2014-08-02T16:10:00,0,20906452,203928
OK,53,43,764,53,2014-08-02T16:15:00,0,20906901,203928
OK,53,43,764,53,2014-08-02T16:20:00,0,20907350,203928
OK,53,43,764,53,2014-08-02T16:25:00,0,20907799,203928
OK,53,43,764,53,2014-08-02T16:30:00,0,20908248,203928
OK,53,43,764,53,2014-08-02T16:35:00,0,20908697,203928
OK,53,43,764,53,2014-08-02T16:40:00,0,20909146,203928
OK,53,43,764,53,2014-08-02T16:45:00,0,20909595,203928
OK,53,43,764,53,2014-08-02T16:50:00,0,20910044,203928
OK,53,43,764,53,2014-08-02T16:55:00,0,20910493,203928
OK,53,43,764,53,2014-08-02T17:00:00,0,20910942,203928
OK,53,43,764,53,2014-08-02T17:05:00,0,20911391,203928
OK,53,43,764,53,2014-08-02T17:10:00,0,20911840,203928
OK,53,43,764,53,2014-08-02T17:15:00,0,20912289,203928
OK,50,46,764,50,2014-08-02T17:20:00,1,20912738,203928
OK,50,46,764,50,2014-08-02T17:25:00,1,20913187,203928
OK,50,46,764,50,2014-08-02T17:30:00,0,20913636,203928
OK,50,46,764,50,2014-08-02T17:35:00,0,20914085,203928
OK,50,46,764,50,2014-08-02T17:40:00,0,20914534,203928
OK,50,46,764,50,2014-08-02T17:45:00,0,20914983,203928
OK,50,46,764,50,2014-08-02T17:50:00,0,20915432,203928
OK,50,46,764,50,2014-08-02T17:55:00,0,20915881,203928
OK,50,46,764,50,2014-08-02T18:00:00,0,20916330,203928
OK,50,46,764,50,2014-08-02T18:05:00,0,20916779,203928
OK,50,46,764,50,2014-08-02T18:10:00,0,20917228,203928
OK,50,46,764,50,2014-08-02T18:15:00,0,20917677,203928
OK,50,46,764,50,2014-08-02T18:20:00,0,20918126,203928
OK,50,46,764,50,2014-08-02T18:25:00,0,20918575,203928
OK,50,46,764,50,2014-08-02T18:30:00,0,20919024,203928
OK,50,46,764,50,2014-08-02T18:35:00,0,20919473,203928
OK,50,46,764,50,2014-08-02T18:40:00,0,20919922,203928
OK,50,46,764,50,2014-08-02T18:45:00,0,20920371,203928
OK,50,46,764,50,2014-08-02T18:50:00,0,20920820,203928
OK,50,46,764,50,2014-08-02T18:55:00,0,20921269,203928
OK,50,46,764,50,2014-08-02T19:00:00,0,20921718,203928
OK,50,46,764,50,2014-08-02T19:05:00,0,20922167,203928
OK,50,46,764,50,2014-08-02T19:10:00,0,20922616,203928
OK,50,46,764,50,2014-08-02T19:15:00,0,20923065,203928
OK,50,46,764,50,2014-08-02T19:20:00,0,20923514,203928
OK,50,46,764,50,2014-08-02T19:25:00,0,20923963,203928
OK,50,46,764,50,2014-08-02T19:30:00,0,20924412,203928
OK,50,46,764,50,2014-08-02T19:35:00,0,20924861,203928
OK,50,46,764,50,2014-08-02T19:40:00,0,20925310,203928
OK,55,41,764,55,2014-08-02T19:45:00,1,20925759,203928
OK,55,41,764,55,2014-08-02T19:50:00,0,20926208,203928
OK,55,41,764,55,2014-08-02T19:55:00,0,20926657,203928
OK,55,41,764,55,2014-08-02T20:00:00,0,20927106,203928
OK,55,41,764,55,2014-08-02T20:05:00,0,20927555,203928
OK,55,41,764,55,2014-08-02T20:10:00,0,20928004,203928
OK,55,41,764,55,2014-08-02T20:15:00,0,20928453,203928
OK,55,41,764,55,2014-08-02T20:20:00,0,20928902,203928
OK,55,41,764,55,2014-08-02T20:25:00,0,20929351,203928
OK,55,41,764,55,2014-08-02T20:30:00,0,20929800,203928
OK,55,41,764,55,2014-08-02T20:35:00,0,20930249,203928
OK,55,41,764,55,2014-08-02T20:40:00,0,20930698,203928
OK,55,41,764,55,2014-08-02T20:45:00,0,20931147,203928
OK,55,41,764,55,2014-08-02T20:50:00,0,20931596,203928
OK,55,41,764,55,2014-08-02T20:55:00,0,20932045,203928
OK,55,41,764,55,2014-08-02T21:00:00,0,20932494,203928
OK,55,41,764,55,2014-08-02T21:05:00,0,20932943,203928
OK,55,41,764,55,2014-08-02T21:10:00,0,20933392,203928
OK,55,41,764,55,2014-08-02T21:15:00,0,20933841,203928
OK,55,41,764,55,2014-08-02T21:20:00,0,20934290,203928
OK,55,41,764,55,2014-08-02T21:25:00,0,20934739,203928
OK,55,41,764,55,2014-08-02T21:30:00,0,20935188,203928
OK,55,41,764,55,2014-08-02T21:35:00,0,20935637,203928
OK,55,41,764,55,2014-08-02T21:40:00,0,20936086,203928
OK,55,41,764,55,2014-08-02T21:45:00,0,20936535,203928
OK,55,41,764,55,2014-08-02T21:50:00,0,20936984,203928
OK,55,41,764,55,2014-08-02T21:55:00,0,20937433,203928
OK,55,41,764,55,2014-08-02T22:00:00,0,20937882,203928
OK,55,41,764,55,2014-08-02T22:05:00,0,20938331,203928
OK,55,41,764,55,2014-08-02T22:10:00,0,20938780,203928
OK,55,41,764,55,2014-08-02T22:15:00,0,20939229,203928
OK,55,41,764,55,2014-08-02T22:20:00,0,20939678,203928
OK,55,41,764,55,2014-08-02T22:25:00,0,20940127,203928
OK,55,41,764,55,2014-08-02T22:30:00,0,20940576,203928
OK,50,46,764,50,2014-08-02T22:35:00,0,20941025,203928
OK,50,46,764,50,2014-08-02T22:40:00,0,20941474,203928
OK,50,46,764,50,2014-08-02T22:45:00,0,20941923,203928
OK,50,46,764,50,2014-08-02T22:50:00,0,20942372,203928
OK,50,46,764,50,2014-08-02T22:55:00,0,20942821,203928
OK,50,46,764,50,2014-08-02T23:00:00,0,20943270,203928
OK,50,46,764,50,2014-08-02T23:10:00,0,20943719,203928
OK,50,46,764,50,2014-08-02T23:15:00,0,20944168,203928
OK,50,46,764,50,2014-08-02T23:20:00,0,20944617,203928
OK,50,46,764,50,2014-08-02T23:25:00,0,20945066,203928
OK,50,46,764,50,2014-08-02T23:30:00,0,20945515,203928
OK,50,46,764,50,2014-08-02T23:35:00,0,20945964,203928
OK,50,46,764,50,2014-08-02T23:40:00,0,20946413,203928
OK,50,46,764,50,2014-08-02T23:45:00,0,20946862,203928